Notices

What's New in latest Release from April 7th, 2021:

- Updated Glossary, including Speed of Maximum Gust, and Total Hourly Precipitation

- Updated national and regional climate services offices contacts and prices information

- Addition of station inventory lists for 1981-2010, 1971-2000, and 1961-1990 Normals.

If you haven't already, please take our survey and provide feedback about our website: https://eccc.sondage-survey.ca/f/LanguageSelection.aspx?s=442ca660-fcf1-47c0-95a9-59707d6fd709

Hourly Data Report for March 23, 2021

MIRAMICHI RCS
NEW BRUNSWICK
Current Station Operator: ECCC - MSC

47°00'34.000" N
65°27'54.000" W
33.00 m
8100989
71744
ACQ

Download Data

Hourly Data (March 2021)
Hourly Data Report for March 23, 2021
TIME
LST
Temp Definition
°C
Dew Point Definition
°C
Rel Hum Definition
%
Precip. Amount Definition
mm

Wind Dir Definition
10's deg

Wind Spd Definition
km/h
Visibility Definition
km
Stn Press Definition
kPa
Hmdx Definition


Wind Chill Definition


Weather Definition


00:00 6.4 -5.4 43 LegendMM 24 14   101.89     LegendNANA
01:00 4.8 -4.6 50 LegendMM 22 20   101.87     LegendNANA
02:00 4.3 -5.3 50 LegendMM 24 14   101.88     LegendNANA
03:00 3.3 -5.4 53 LegendMM 24 15   101.90     LegendNANA
04:00 1.5 -5.3 60 LegendMM 22 15   101.88     LegendNANA
05:00 1.3 -5.7 60 LegendMM 23 13   101.90     LegendNANA
06:00 0.6 -6.0 61 LegendMM 24 11   101.90     LegendNANA
07:00 0.4 -5.9 62 LegendMM 23 13   101.92     LegendNANA
08:00 2.0 -5.5 58 LegendMM 23 19   101.93     LegendNANA
09:00 4.6 -4.8 50 LegendMM 23 14   101.91     LegendNANA
10:00 7.7 -5.4 39 LegendMM 23 14   101.91     LegendNANA
11:00 10.4 -5.4 33 LegendMM 24 15   101.86     LegendNANA
12:00 12.8 -6.1 26 LegendMM 22 17   101.81     LegendNANA
13:00 14.0 -5.8 25 LegendMM 23 18   101.81     LegendNANA
14:00 14.0 -5.1 26 LegendMM 22 19   101.75     LegendNANA
15:00 15.6 -5.9 22 LegendMM 23 17   101.69     LegendNANA
16:00 15.6 -5.7 23 LegendMM 22 22   101.64     LegendNANA
17:00 14.1 -5.2 26 LegendMM 22 25   101.64     LegendNANA
18:00 12.1 -4.6 31 LegendMM 21 14   101.70     LegendNANA
19:00 13.3 -5.9 26 LegendMM 24 11   101.73     LegendNANA
20:00 11.5 -5.2 31 LegendMM 24 11   101.77     LegendNANA
21:00 9.1 -4.4 38 LegendMM 23 11   101.79     LegendNANA
22:00 8.4 -2.6 46 LegendMM 24 8   101.78     LegendNANA
23:00 6.5 -0.6 60 LegendMM 23 10   101.78     LegendNANA

Notes on Data Quality.

Legend

  • E = Estimated
  • M = Missing
  • NA = Not Available*
  • [empty] = Indicates an unobserved value
Date modified: